Zurück zum Katalog

STARLINK-35241

AktivKommunikationVLEO
NORAD 65515·PAYLOAD·🇺🇸 United States

Gestartet Sep 5, 2025 von Cape Canaveral Space Force Station

Loading…

Nächste Überflüge (nächste 24 Stunden)

TLE

AktuellSource: CelesTrak SupGP

Epoche: Sep 15, 2026, 02:24 UTC

1 65515C 25198Z   26258.10048611  .00027979  00000+0  82598-3 0  2587
2 65515  53.1566 109.2234 0001196  87.3369  54.9311 15.34401933    11

Verfolge STARLINK-35241 in Echtzeit mit AllMySat

Download on the App Store